| time (UTC) | temp F | wind direction | speed knots | gust knots | rain 1hr in | rain 24hr in | rain mn in | humidity % | barometer mb |
| 20260508143119 | 60 | 355 | 1.7 | 4.3 | 0.00 | 0.00 | 0.00 | 35 | 1011.0 |
| 20260508142554 | 59 | 348 | 1.7 | 5.2 | 0.00 | 0.00 | 0.00 | 37 | 1011.0 |
| 20260508142053 | 59 | 315 | 2.6 | 5.2 | 0.00 | 0.00 | 0.00 | 37 | 1011.2 |
| 20260508141552 | 59 | 315 | 1.7 | 4.3 | 0.00 | 0.00 | 0.00 | 38 | 1011.2 |
| 20260508141052 | 59 | 315 | 1.7 | 7.0 | 0.00 | 0.00 | 0.00 | 39 | 1011.2 |
| 20260508140549 | 58 | 325 | 2.6 | 7.0 | 0.00 | 0.00 | 0.00 | 39 | 1011.1 |
| 20260508135550 | 57 | 292 | 0.9 | 4.3 | 0.00 | 0.00 | 0.00 | 40 | 1011.1 |
| 20260508135046 | 57 | 309 | 0.9 | 4.3 | 0.00 | 0.00 | 0.00 | 41 | 1011.1 |
| 20260508134544 | 56 | 312 | 1.7 | 7.0 | 0.00 | 0.00 | 0.00 | 42 | 1011.0 |
| 20260508133546 | 55 | 303 | 0.0 | 5.2 | 0.00 | 0.00 | 0.00 | 46 | 1011.1 |
| 20260508133049 | 54 | 302 | 1.7 | 5.2 | 0.00 | 0.00 | 0.00 | 46 | 1010.9 |
| 20260508132544 | 53 | 294 | 0.9 | 5.2 | 0.00 | 0.00 | 0.00 | 48 | 1010.9 |
| 20260508132042 | 53 | 303 | 0.9 | 4.3 | 0.00 | 0.00 | 0.00 | 50 | 1010.8 |
| 20260508131541 | 52 | 310 | 0.9 | 4.3 | 0.00 | 0.00 | 0.00 | 50 | 1010.8 |
| 20260508131040 | 51 | 294 | 1.7 | 3.5 | 0.00 | 0.00 | 0.00 | 51 | 1010.7 |
| 20260508130538 | 50 | 321 | 0.9 | 3.5 | 0.00 | 0.00 | 0.00 | 53 | 1010.6 |
| 20260508130038 | 49 | 290 | 0.0 | 3.5 | 0.00 | 0.00 | 0.00 | 55 | 1010.6 |
| 20260508125538 | 48 | 287 | 0.0 | 1.7 | 0.00 | 0.00 | 0.00 | 57 | 1010.6 |
| 20260508125036 | 48 | 287 | 0.0 | 3.5 | 0.00 | 0.00 | 0.00 | 58 | 1010.5 |
| 20260508124536 | 47 | 282 | 0.0 | 3.5 | 0.00 | 0.00 | 0.00 | 59 | 1010.5 |
| 20260508123532 | 46 | 309 | 0.0 | 2.6 | 0.00 | 0.00 | 0.00 | 60 | 1010.4 |
| 20260508123034 | 46 | 309 | 0.9 | 3.5 | 0.00 | 0.00 | 0.00 | 61 | 1010.3 |
| 20260508122530 | 45 | 310 | 1.7 | 3.5 | 0.00 | 0.00 | 0.00 | 61 | 1010.2 |
| 20260508122030 | 45 | 284 | 0.9 | 3.5 | 0.00 | 0.00 | 0.00 | 62 | 1010.3 |
| 20260508121530 | 45 | 309 | 0.0 | 2.6 | 0.00 | 0.00 | 0.00 | 62 | 1010.1 |
| 20260508121029 | 45 | 309 | 0.9 | 3.5 | 0.00 | 0.00 | 0.00 | 62 | 1010.1 |
| 20260508120528 | 44 | 308 | 0.9 | 3.5 | 0.00 | 0.00 | 0.00 | 63 | 1010.1 |
| 20260508120028 | 44 | 307 | 0.9 | 3.5 | 0.00 | 0.00 | 0.00 | 63 | 1010.1 |
| 20260508115527 | 44 | 304 | 0.9 | 3.5 | 0.00 | 0.00 | 0.00 | 64 | 1010.0 |
| 20260508115028 | 44 | 302 | 1.7 | 3.5 | 0.00 | 0.00 | 0.00 | 65 | 1010.0 |
| 20260508114527 | 43 | 317 | 0.0 | 3.5 | 0.00 | 0.00 | 0.00 | 65 | 1009.8 |
| 20260508113526 | 44 | 308 | 0.9 | 2.6 | 0.00 | 0.00 | 0.00 | 64 | 1009.9 |
| 20260508113025 | 45 | 308 | 0.9 | 2.6 | 0.00 | 0.00 | 0.00 | 63 | 1009.7 |
| 20260508112527 | 45 | 307 | 0.9 | 4.3 | 0.00 | 0.00 | 0.00 | 64 | 1009.6 |
| 20260508112023 | 45 | 304 | 1.7 | 4.3 | 0.00 | 0.00 | 0.00 | 64 | 1009.4 |
| 20260508111523 | 45 | 316 | 0.9 | 3.5 | 0.00 | 0.00 | 0.00 | 63 | 1009.3 |
| 20260508111022 | 46 | 24 | 0.9 | 4.3 | 0.00 | 0.00 | 0.00 | 63 | 1009.4 |
| 20260508110520 | 46 | 355 | 2.6 | 5.2 | 0.00 | 0.00 | 0.00 | 64 | 1009.4 |
| 20260508110019 | 46 | 22 | 3.5 | 5.2 | 0.00 | 0.00 | 0.00 | 64 | 1009.3 |
| 20260508105519 | 46 | 294 | 0.0 | 7.0 | 0.00 | 0.00 | 0.00 | 65 | 1009.2 |
| 20260508105018 | 46 | 308 | 1.7 | 7.0 | 0.00 | 0.00 | 0.00 | 65 | 1008.9 |
| 20260508104517 | 46 | 35 | 0.9 | 5.2 | 0.00 | 0.00 | 0.00 | 65 | 1008.9 |
| 20260508103516 | 47 | 313 | 2.6 | 5.2 | 0.00 | 0.00 | 0.00 | 66 | 1008.7 |
| 20260508103020 | 47 | 297 | 1.7 | 7.0 | 0.00 | 0.00 | 0.00 | 65 | 1008.6 |
| 20260508102514 | 47 | 281 | 1.7 | 6.1 | 0.00 | 0.00 | 0.00 | 65 | 1008.5 |
| 20260508102013 | 48 | 287 | 2.6 | 7.0 | 0.00 | 0.00 | 0.00 | 64 | 1008.4 |
| 20260508101512 | 48 | 284 | 2.6 | 8.7 | 0.00 | 0.00 | 0.00 | 63 | 1008.4 |
| 20260508101013 | 49 | 307 | 3.5 | 9.6 | 0.00 | 0.00 | 0.00 | 63 | 1008.4 |
| 20260508100511 | 49 | 284 | 5.2 | 9.6 | 0.00 | 0.00 | 0.00 | 63 | 1008.3 |
| 20260508100020 | 49 | 292 | 3.5 | 9.6 | 0.00 | 0.00 | 0.00 | 64 | 1008.1 |
| 20260508095511 | 49 | 317 | 5.2 | 10.4 | 0.00 | 0.00 | 0.00 | 65 | 1008.2 |
| 20260508095013 | 49 | 285 | 6.1 | 11.3 | 0.00 | 0.00 | 0.00 | 64 | 1008.0 |
| 20260508094512 | 50 | 336 | 6.1 | 11.3 | 0.00 | 0.00 | 0.00 | 64 | 1008.1 |
| 20260508093511 | 50 | 293 | 7.0 | 13.9 | 0.00 | 0.00 | 0.00 | 65 | 1008.1 |
| 20260508093008 | 49 | 279 | 6.1 | 13.9 | 0.00 | 0.00 | 0.00 | 66 | 1008.1 |
| 20260508092510 | 49 | 279 | 5.2 | 10.4 | 0.00 | 0.00 | 0.00 | 66 | 1008.2 |
| 20260508092007 | 50 | 300 | 5.2 | 10.4 | 0.00 | 0.00 | 0.00 | 65 | 1007.9 |
| 20260508091506 | 50 | 277 | 5.2 | 9.6 | 0.00 | 0.00 | 0.00 | 65 | 1008.0 |
| 20260508091006 | 50 | 275 | 5.2 | 9.6 | 0.00 | 0.00 | 0.00 | 65 | 1007.8 |
| 20260508090605 | 50 | 281 | 5.2 | 7.8 | 0.00 | 0.00 | 0.00 | 66 | 1007.9 |
| 20260508090005 | 49 | 300 | 3.5 | 8.7 | 0.00 | 0.00 | 0.00 | 67 | 1007.8 |
| 20260508085504 | 49 | 292 | 3.5 | 7.0 | 0.00 | 0.00 | 0.00 | 67 | 1007.8 |
| 20260508085007 | 49 | 317 | 2.6 | 7.0 | 0.00 | 0.00 | 0.00 | 68 | 1007.9 |
| 20260508084505 | 48 | 302 | 2.6 | 7.0 | 0.00 | 0.00 | 0.00 | 68 | 1007.7 |
| 20260508083505 | 48 | 291 | 2.6 | 4.3 | 0.00 | 0.00 | 0.00 | 69 | 1007.8 |
| 20260508083005 | 49 | 299 | 0.9 | 5.2 | 0.00 | 0.00 | 0.00 | 68 | 1007.8 |
| 20260508082504 | 49 | 304 | 3.5 | 6.1 | 0.00 | 0.00 | 0.00 | 66 | 1007.8 |
| 20260508082004 | 51 | 327 | 3.5 | 8.7 | 0.00 | 0.00 | 0.00 | 65 | 1007.9 |
| 20260508081504 | 51 | 292 | 3.5 | 10.4 | 0.00 | 0.00 | 0.00 | 66 | 1008.0 |
| 20260508081003 | 50 | 275 | 3.5 | 10.4 | 0.00 | 0.00 | 0.00 | 67 | 1007.9 |
| 20260508080502 | 49 | 274 | 2.6 | 6.1 | 0.00 | 0.00 | 0.00 | 68 | 1008.1 |
| 20260508080006 | 49 | 284 | 2.6 | 4.3 | 0.00 | 0.00 | 0.00 | 68 | 1008.0 |
| 20260508075503 | 48 | 273 | 1.7 | 5.2 | 0.00 | 0.00 | 0.00 | 68 | 1008.2 |
| 20260508075004 | 48 | 272 | 2.6 | 5.2 | 0.00 | 0.00 | 0.00 | 67 | 1008.0 |
| 20260508074502 | 49 | 272 | 1.7 | 3.5 | 0.00 | 0.00 | 0.00 | 67 | 1008.1 |
| 20260508073503 | 49 | 272 | 2.6 | 6.1 | 0.00 | 0.00 | 0.00 | 64 | 1008.3 |
| 20260508073003 | 50 | 272 | 2.6 | 6.1 | 0.00 | 0.00 | 0.00 | 63 | 1008.2 |
| 20260508072502 | 51 | 271 | 2.6 | 7.8 | 0.00 | 0.00 | 0.00 | 62 | 1008.3 |
| 20260508072002 | 51 | 258 | 3.5 | 7.8 | 0.00 | 0.00 | 0.00 | 61 | 1008.2 |
| 20260508071502 | 51 | 271 | 2.6 | 7.8 | 0.00 | 0.00 | 0.00 | 61 | 1008.2 |
| 20260508071100 | 51 | 241 | 2.6 | 7.8 | 0.00 | 0.00 | 0.00 | 59 | 1008.4 |
| 20260508070603 | 51 | 245 | 3.5 | 7.0 | 0.00 | 0.00 | 0.00 | 59 | 1008.2 |
| 20260508065559 | 51 | 254 | 2.6 | 6.1 | 0.00 | 0.00 | 0.00 | 59 | 1008.2 |
| 20260508065101 | 51 | 244 | 2.6 | 5.2 | 0.00 | 0.00 | 0.00 | 58 | 1008.3 |
| 20260508064600 | 50 | 253 | 1.7 | 4.3 | 0.00 | 0.00 | 0.00 | 57 | 1008.3 |
| 20260508063553 | 49 | 250 | 2.6 | 7.0 | 0.00 | 0.00 | 0.00 | 57 | 1008.4 |
| 20260508063054 | 49 | 240 | 3.5 | 7.0 | 0.00 | 0.00 | 0.00 | 55 | 1008.3 |
| 20260508062552 | 49 | 240 | 2.6 | 7.0 | 0.00 | 0.00 | 0.00 | 54 | 1008.4 |
| 20260508062054 | 49 | 244 | 3.5 | 6.1 | 0.00 | 0.00 | 0.00 | 53 | 1008.3 |
| 20260508061552 | 50 | 254 | 3.5 | 6.1 | 0.00 | 0.00 | 0.00 | 53 | 1008.3 |
| 20260508061051 | 50 | 244 | 3.5 | 6.1 | 0.00 | 0.00 | 0.00 | 53 | 1008.5 |
| 20260508060551 | 50 | 251 | 2.6 | 6.1 | 0.00 | 0.00 | 0.00 | 51 | 1008.4 |
| 20260508060051 | 49 | 248 | 2.6 | 5.2 | 0.00 | 0.00 | 0.00 | 53 | 1008.6 |
| 20260508055551 | 49 | 263 | 3.5 | 5.2 | 0.00 | 0.00 | 0.00 | 52 | 1008.6 |
| 20260508055051 | 49 | 263 | 2.6 | 5.2 | 0.00 | 0.00 | 0.00 | 53 | 1008.7 |
| 20260508054554 | 49 | 263 | 3.5 | 5.2 | 0.00 | 0.00 | 0.00 | 53 | 1008.7 |
| 20260508053553 | 48 | 262 | 3.5 | 5.2 | 0.00 | 0.00 | 0.00 | 51 | 1008.8 |
| 20260508053056 | 48 | 262 | 2.6 | 5.2 | 0.00 | 0.00 | 0.00 | 51 | 1008.8 |
| 20260508052553 | 48 | 261 | 2.6 | 3.5 | 0.00 | 0.00 | 0.00 | 50 | 1008.9 |
| 20260508052050 | 48 | 261 | 2.6 | 3.5 | 0.00 | 0.00 | 0.00 | 50 | 1008.8 |
| 20260508051602 | 49 | 261 | 1.7 | 3.5 | 0.00 | 0.00 | 0.00 | 49 | 1008.7 |
| 20260508051050 | 50 | 261 | 1.7 | 3.5 | 0.00 | 0.00 | 0.00 | 48 | 1009.0 |
| 20260508050550 | 51 | 261 | 1.7 | 3.5 | 0.00 | 0.00 | 0.00 | 47 | 1009.0 |
| 20260508045549 | 50 | 261 | 2.6 | 5.2 | 0.00 | 0.00 | 0.00 | 48 | 1009.1 |
| 20260508045049 | 50 | 261 | 2.6 | 3.5 | 0.00 | 0.00 | 0.00 | 48 | 1008.9 |
| 20260508044554 | 51 | 261 | 1.7 | 3.5 | 0.00 | 0.00 | 0.00 | 46 | 1008.9 |
| 20260508043550 | 51 | 261 | 1.7 | 3.5 | 0.00 | 0.00 | 0.00 | 46 | 1008.9 |
| 20260508043050 | 51 | 259 | 1.7 | 3.5 | 0.00 | 0.00 | 0.00 | 46 | 1008.8 |
| 20260508042550 | 51 | 259 | 1.7 | 3.5 | 0.00 | 0.00 | 0.00 | 46 | 1008.7 |
| 20260508042050 | 51 | 259 | 1.7 | 3.5 | 0.00 | 0.00 | 0.00 | 46 | 1008.7 |
| 20260508041554 | 52 | 257 | 1.7 | 4.3 | 0.00 | 0.00 | 0.00 | 45 | 1008.8 |
| 20260508041050 | 53 | 258 | 1.7 | 4.3 | 0.00 | 0.00 | 0.00 | 45 | 1009.0 |
| 20260508040549 | 53 | 292 | 0.9 | 2.6 | 0.00 | 0.00 | 0.00 | 45 | 1008.9 |
| 20260508040057 | 53 | 292 | 0.0 | 0.0 | 0.00 | 0.00 | 0.00 | 46 | 1008.9 |
| 20260508035552 | 53 | 292 | 0.0 | 0.0 | 0.00 | 0.00 | 0.00 | 46 | 1008.9 |
| 20260508035049 | 52 | 292 | 0.0 | 0.0 | 0.00 | 0.00 | 0.00 | 45 | 1009.0 |
| 20260508034549 | 52 | 292 | 0.0 | 0.9 | 0.00 | 0.00 | 0.00 | 46 | 1009.1 |
| 20260508033550 | 51 | 292 | 0.9 | 1.7 | 0.00 | 0.00 | 0.00 | 45 | 1009.0 |
| 20260508033048 | 52 | 292 | 0.9 | 1.7 | 0.00 | 0.00 | 0.00 | 45 | 1009.2 |
| 20260508032547 | 52 | 292 | 0.9 | 1.7 | 0.00 | 0.00 | 0.00 | 44 | 1009.2 |
| 20260508032047 | 52 | 292 | 0.9 | 2.6 | 0.00 | 0.00 | 0.00 | 44 | 1009.0 |
| 20260508031546 | 52 | 292 | 1.7 | 2.6 | 0.00 | 0.00 | 0.00 | 43 | 1009.1 |
| 20260508031046 | 52 | 292 | 0.9 | 2.6 | 0.00 | 0.00 | 0.00 | 43 | 1009.0 |
| 20260508030546 | 52 | 292 | 0.9 | 2.6 | 0.00 | 0.00 | 0.00 | 42 | 1009.1 |
| 20260508030052 | 52 | 292 | 0.9 | 2.6 | 0.00 | 0.00 | 0.00 | 43 | 1009.0 |
| 20260508025545 | 52 | 292 | 1.7 | 2.6 | 0.00 | 0.00 | 0.00 | 42 | 1009.0 |
| 20260508025045 | 52 | 292 | 1.7 | 2.6 | 0.00 | 0.00 | 0.00 | 42 | 1009.1 |
| 20260508024545 | 52 | 292 | 0.9 | 2.6 | 0.00 | 0.00 | 0.00 | 42 | 1009.0 |
| 20260508023546 | 53 | 292 | 0.9 | 1.7 | 0.00 | 0.00 | 0.00 | 40 | 1008.8 |
| 20260508023045 | 54 | 292 | 0.9 | 2.6 | 0.00 | 0.00 | 0.00 | 38 | 1008.9 |
| 20260508022546 | 55 | 292 | 0.9 | 2.6 | 0.00 | 0.00 | 0.00 | 37 | 1008.7 |
| 20260508022048 | 57 | 292 | 1.7 | 2.6 | 0.00 | 0.00 | 0.00 | 34 | 1008.7 |
| 20260508021545 | 58 | 292 | 0.0 | 0.9 | 0.00 | 0.00 | 0.00 | 34 | 1008.8 |
| 20260508021044 | 59 | 292 | 0.0 | 0.9 | 0.00 | 0.00 | 0.00 | 33 | 1008.7 |
| 20260508020547 | 60 | 292 | 0.0 | 0.9 | 0.00 | 0.00 | 0.00 | 32 | 1008.7 |
| 20260508020044 | 61 | 293 | 0.0 | 0.9 | 0.00 | 0.00 | 0.00 | 31 | 1008.6 |
| 20260508015544 | 62 | 293 | 0.0 | 0.0 | 0.00 | 0.00 | 0.00 | 30 | 1008.7 |
| 20260508015044 | 63 | 293 | 0.0 | 0.9 | 0.00 | 0.00 | 0.00 | 30 | 1008.6 |
| 20260508014544 | 63 | 293 | 0.0 | 0.9 | 0.00 | 0.00 | 0.00 | 30 | 1008.6 |
| 20260508013548 | 64 | 293 | 0.9 | 3.5 | 0.00 | 0.00 | 0.00 | 29 | 1008.6 |
| 20260508013048 | 64 | 292 | 0.0 | 3.5 | 0.00 | 0.00 | 0.00 | 29 | 1008.7 |
| 20260508012548 | 64 | 265 | 0.9 | 4.3 | 0.00 | 0.00 | 0.00 | 28 | 1008.7 |
| 20260508012049 | 64 | 310 | 1.7 | 5.2 | 0.00 | 0.00 | 0.00 | 28 | 1008.5 |
| 20260508011548 | 64 | 283 | 1.7 | 7.0 | 0.00 | 0.00 | 0.00 | 28 | 1008.6 |
| 20260508011047 | 65 | 309 | 2.6 | 7.0 | 0.00 | 0.00 | 0.00 | 27 | 1008.6 |
| 20260508010547 | 65 | 309 | 1.7 | 7.0 | 0.00 | 0.00 | 0.00 | 27 | 1008.6 |
| 20260508010049 | 65 | 307 | 2.6 | 7.0 | 0.00 | 0.00 | 0.00 | 27 | 1008.7 |
| 20260508005547 | 65 | 284 | 1.7 | 7.0 | 0.00 | 0.00 | 0.00 | 27 | 1008.7 |
| 20260508005048 | 65 | 290 | 1.7 | 9.6 | 0.00 | 0.00 | 0.00 | 27 | 1008.7 |
| 20260508004552 | 65 | 323 | 4.3 | 9.6 | 0.00 | 0.00 | 0.00 | 27 | 1008.8 |
| 20260508003549 | 65 | 295 | 4.3 | 7.8 | 0.00 | 0.00 | 0.00 | 28 | 1008.7 |
| 20260508003049 | 65 | 317 | 3.5 | 11.3 | 0.00 | 0.00 | 0.00 | 28 | 1008.6 |
| 20260508002546 | 65 | 259 | 5.2 | 11.3 | 0.00 | 0.00 | 0.00 | 27 | 1008.8 |
| 20260508002045 | 65 | 348 | 4.3 | 8.7 | 0.00 | 0.00 | 0.00 | 28 | 1008.7 |
| 20260508001546 | 66 | 274 | 4.3 | 8.7 | 0.00 | 0.00 | 0.00 | 28 | 1008.7 |
| 20260508001045 | 66 | 257 | 4.3 | 11.3 | 0.00 | 0.00 | 0.00 | 28 | 1008.6 |
| 20260508000546 | 66 | 287 | 5.2 | 10.4 | 0.00 | 0.00 | 0.00 | 28 | 1008.6 |
| 20260508000047 | 67 | 345 | 3.5 | 8.7 | 0.00 | 0.00 | 0.00 | 28 | 1008.8 |
| 20260507235547 | 67 | 322 | 3.5 | 7.8 | 0.00 | 0.00 | 0.00 | 28 | 1008.7 |
| 20260507235046 | 67 | 298 | 3.5 | 7.8 | 0.00 | 0.00 | 0.00 | 27 | 1008.6 |
| 20260507234553 | 67 | 5 | 3.5 | 7.8 | 0.00 | 0.00 | 0.00 | 27 | 1008.6 |
| 20260507233544 | 67 | 326 | 2.6 | 7.0 | 0.00 | 0.00 | 0.00 | 27 | 1008.6 |
| 20260507233103 | 67 | 296 | 2.6 | 7.8 | 0.00 | 0.00 | 0.00 | 26 | 1008.6 |
| 20260507232543 | 67 | 320 | 4.3 | 7.8 | 0.00 | 0.00 | 0.00 | 25 | 1008.6 |
| 20260507232049 | 68 | 308 | 2.6 | 7.8 | 0.00 | 0.00 | 0.00 | 24 | 1008.6 |
| 20260507231544 | 67 | 288 | 2.6 | 8.7 | 0.00 | 0.00 | 0.00 | 26 | 1008.5 |
| 20260507231042 | 67 | 312 | 3.5 | 9.6 | 0.00 | 0.00 | 0.00 | 24 | 1008.6 |
| 20260507230545 | 67 | 285 | 3.5 | 9.6 | 0.00 | 0.00 | 0.00 | 25 | 1008.6 |
| 20260507230047 | 66 | 286 | 4.3 | 8.7 | 0.00 | 0.00 | 0.00 | 27 | 1008.6 |
| 20260507225542 | 65 | 300 | 3.5 | 8.7 | 0.00 | 0.00 | 0.00 | 26 | 1008.5 |
| 20260507225042 | 66 | 324 | 4.3 | 9.6 | 0.00 | 0.00 | 0.00 | 26 | 1008.6 |
| 20260507224541 | 66 | 344 | 3.5 | 9.6 | 0.00 | 0.00 | 0.00 | 26 | 1008.7 |
| 20260507223540 | 65 | 262 | 2.6 | 10.4 | 0.00 | 0.00 | 0.00 | 26 | 1008.7 |
| 20260507223054 | 65 | 279 | 3.5 | 10.4 | 0.00 | 0.00 | 0.00 | 26 | 1008.6 |
| 20260507222540 | 65 | 249 | 5.2 | 9.6 | 0.00 | 0.00 | 0.00 | 25 | 1008.8 |
| 20260507222038 | 65 | 286 | 4.3 | 10.4 | 0.00 | 0.00 | 0.00 | 26 | 1008.7 |
| 20260507221542 | 66 | 293 | 5.2 | 11.3 | 0.00 | 0.00 | 0.00 | 24 | 1008.8 |
| 20260507221040 | 66 | 269 | 4.3 | 11.3 | 0.00 | 0.00 | 0.00 | 24 | 1008.7 |
| 20260507220537 | 66 | 265 | 2.6 | 9.6 | 0.00 | 0.00 | 0.00 | 25 | 1008.8 |
| 20260507220040 | 66 | 270 | 4.3 | 12.2 | 0.00 | 0.00 | 0.00 | 23 | 1008.8 |
| 20260507215537 | 67 | 286 | 3.5 | 8.7 | 0.00 | 0.00 | 0.00 | 22 | 1008.8 |
| 20260507215036 | 68 | 292 | 5.2 | 12.2 | 0.00 | 0.00 | 0.00 | 22 | 1008.9 |
| 20260507214535 | 69 | 304 | 3.5 | 12.2 | 0.00 | 0.00 | 0.00 | 20 | 1009.0 |
| 20260507213542 | 69 | 221 | 1.7 | 10.4 | 0.00 | 0.00 | 0.00 | 21 | 1009.0 |
| 20260507213036 | 68 | 275 | 6.1 | 10.4 | 0.00 | 0.00 | 0.00 | 20 | 1009.2 |
| 20260507212539 | 67 | 349 | 3.5 | 10.4 | 0.00 | 0.00 | 0.00 | 21 | 1009.2 |
| 20260507212035 | 67 | 321 | 4.3 | 10.4 | 0.00 | 0.00 | 0.00 | 21 | 1009.4 |
| 20260507211546 | 67 | 306 | 3.5 | 7.8 | 0.00 | 0.00 | 0.00 | 20 | 1009.3 |
| 20260507211035 | 67 | 317 | 2.6 | 7.8 | 0.00 | 0.00 | 0.00 | 22 | 1009.4 |
| 20260507210535 | 67 | 271 | 4.3 | 7.8 | 0.00 | 0.00 | 0.00 | 21 | 1009.6 |
| 20260507210047 | 66 | 300 | 2.6 | 8.7 | 0.00 | 0.00 | 0.00 | 22 | 1009.6 |
| 20260507205534 | 67 | 360 | 4.3 | 8.7 | 0.00 | 0.00 | 0.00 | 20 | 1009.6 |
| 20260507205035 | 66 | 254 | 2.6 | 7.8 | 0.00 | 0.00 | 0.00 | 22 | 1009.6 |
| 20260507204542 | 65 | 265 | 3.5 | 7.8 | 0.00 | 0.00 | 0.00 | 22 | 1009.5 |
| 20260507203530 | 66 | 275 | 1.7 | 12.2 | 0.00 | 0.00 | 0.00 | 21 | 1009.6 |
| 20260507203030 | 67 | 292 | 4.3 | 12.2 | 0.00 | 0.00 | 0.00 | 20 | 1009.6 |
| 20260507202529 | 67 | 316 | 3.5 | 7.8 | 0.00 | 0.00 | 0.00 | 20 | 1009.6 |
| 20260507202031 | 67 | 300 | 3.5 | 7.8 | 0.00 | 0.00 | 0.00 | 20 | 1009.7 |
| 20260507201528 | 67 | 293 | 2.6 | 7.8 | 0.00 | 0.00 | 0.00 | 22 | 1009.8 |
| 20260507201028 | 67 | 327 | 2.6 | 8.7 | 0.00 | 0.00 | 0.00 | 21 | 1009.8 |
| 20260507200526 | 66 | 349 | 4.3 | 9.6 | 0.00 | 0.00 | 0.00 | 21 | 1009.7 |
| 20260507200027 | 66 | 315 | 3.5 | 9.6 | 0.00 | 0.00 | 0.00 | 21 | 1009.8 |
| 20260507195529 | 65 | 259 | 2.6 | 7.8 | 0.00 | 0.00 | 0.00 | 21 | 1009.8 |
| 20260507195027 | 66 | 323 | 2.6 | 7.8 | 0.00 | 0.00 | 0.00 | 20 | 1009.9 |
| 20260507194534 | 66 | 306 | 3.5 | 9.6 | 0.00 | 0.00 | 0.00 | 21 | 1009.9 |
| 20260507193528 | 65 | 315 | 1.7 | 7.8 | 0.00 | 0.00 | 0.00 | 21 | 1010.1 |
| 20260507193028 | 65 | 218 | 1.7 | 8.7 | 0.00 | 0.00 | 0.00 | 21 | 1010.1 |
| 20260507192527 | 65 | 313 | 3.5 | 8.7 | 0.00 | 0.00 | 0.00 | 21 | 1010.1 |
| 20260507192025 | 64 | 315 | 3.5 | 10.4 | 0.00 | 0.00 | 0.00 | 22 | 1010.0 |
| 20260507191524 | 64 | 234 | 2.6 | 11.3 | 0.00 | 0.00 | 0.00 | 20 | 1010.1 |
| 20260507191023 | 64 | 331 | 3.5 | 8.7 | 0.00 | 0.00 | 0.00 | 21 | 1010.2 |
| 20260507190523 | 64 | 250 | 5.2 | 8.7 | 0.00 | 0.00 | 0.00 | 22 | 1010.2 |
| 20260507190037 | 63 | 34 | 2.6 | 7.8 | 0.00 | 0.00 | 0.00 | 22 | 1010.2 |
| 20260507185525 | 63 | 315 | 3.5 | 10.4 | 0.00 | 0.00 | 0.00 | 21 | 1010.4 |
| 20260507185020 | 63 | 355 | 2.6 | 10.4 | 0.00 | 0.00 | 0.00 | 22 | 1010.3 |
| 20260507184527 | 63 | 323 | 3.5 | 9.6 | 0.00 | 0.00 | 0.00 | 23 | 1010.4 |
| 20260507183514 | 62 | 218 | 3.5 | 6.1 | 0.00 | 0.00 | 0.00 | 24 | 1010.5 |
| 20260507183015 | 61 | 146 | 0.9 | 4.3 | 0.00 | 0.00 | 0.00 | 24 | 1010.6 |
| 20260507182512 | 61 | 146 | 0.9 | 8.7 | 0.00 | 0.00 | 0.00 | 23 | 1010.8 |
| 20260507182012 | 61 | 140 | 4.3 | 10.4 | 0.00 | 0.00 | 0.00 | 23 | 1010.8 |
| 20260507181511 | 61 | 80 | 5.2 | 10.4 | 0.00 | 0.00 | 0.00 | 23 | 1010.8 |
| 20260507181010 | 60 | 238 | 2.6 | 8.7 | 0.00 | 0.00 | 0.00 | 24 | 1011.0 |
| 20260507180510 | 60 | 323 | 4.3 | 8.7 | 0.00 | 0.00 | 0.00 | 24 | 1011.0 |
| 20260507180012 | 60 | 222 | 3.5 | 9.6 | 0.00 | 0.00 | 0.00 | 23 | 1011.0 |
| 20260507175509 | 60 | 266 | 5.2 | 9.6 | 0.00 | 0.00 | 0.00 | 24 | 1011.1 |
| 20260507175008 | 60 | 190 | 4.3 | 8.7 | 0.00 | 0.00 | 0.00 | 24 | 1011.0 |
| 20260507174511 | 60 | 117 | 3.5 | 7.0 | 0.00 | 0.00 | 0.00 | 24 | 1011.1 |
| 20260507173513 | 59 | 213 | 4.3 | 7.8 | 0.00 | 0.00 | 0.00 | 24 | 1011.1 |
| 20260507173017 | 59 | 222 | 1.7 | 5.2 | 0.00 | 0.00 | 0.00 | 25 | 1011.1 |
| 20260507172506 | 59 | 323 | 2.6 | 4.3 | 0.00 | 0.00 | 0.00 | 24 | 1011.1 |
| 20260507172007 | 59 | 150 | 2.6 | 7.0 | 0.00 | 0.00 | 0.00 | 24 | 1011.2 |
| 20260507171505 | 58 | 182 | 1.7 | 7.0 | 0.00 | 0.00 | 0.00 | 24 | 1011.2 |
| 20260507171004 | 58 | 187 | 3.5 | 7.0 | 0.00 | 0.00 | 0.00 | 24 | 1011.2 |
| 20260507170504 | 59 | 183 | 2.6 | 6.1 | 0.00 | 0.00 | 0.00 | 24 | 1011.4 |
| 20260507170005 | 58 | 105 | 2.6 | 6.1 | 0.00 | 0.00 | 0.00 | 24 | 1011.3 |
| 20260507165502 | 58 | 124 | 1.7 | 4.3 | 0.00 | 0.00 | 0.00 | 24 | 1011.4 |
| 20260507165001 | 58 | 107 | 1.7 | 5.2 | 0.00 | 0.00 | 0.00 | 25 | 1011.5 |
| 20260507164502 | 57 | 140 | 0.9 | 6.1 | 0.00 | 0.00 | 0.00 | 25 | 1011.5 |
| 20260507163601 | 57 | 173 | 3.5 | 4.3 | 0.00 | 0.00 | 0.00 | 25 | 1011.4 |
| 20260507163101 | 56 | 202 | 0.0 | 5.2 | 0.00 | 0.00 | 0.00 | 26 | 1011.5 |
| 20260507162559 | 56 | 202 | 3.5 | 5.2 | 0.00 | 0.00 | 0.00 | 24 | 1011.5 |
| 20260507162058 | 56 | 198 | 1.7 | 5.2 | 0.00 | 0.00 | 0.00 | 25 | 1011.6 |
| 20260507161600 | 55 | 224 | 0.9 | 5.2 | 0.00 | 0.00 | 0.00 | 26 | 1011.6 |
| 20260507161059 | 55 | 221 | 2.6 | 5.2 | 0.00 | 0.00 | 0.00 | 27 | 1011.8 |
| 20260507160555 | 54 | 202 | 3.5 | 6.1 | 0.00 | 0.00 | 0.00 | 28 | 1011.8 |
| 20260507160053 | 54 | 223 | 2.6 | 7.0 | 0.00 | 0.00 | 0.00 | 29 | 1011.9 |
| 20260507155553 | 53 | 193 | 2.6 | 6.1 | 0.00 | 0.00 | 0.00 | 29 | 1011.8 |
| 20260507155051 | 53 | 190 | 4.3 | 6.1 | 0.00 | 0.00 | 0.00 | 30 | 1011.8 |
| 20260507154553 | 52 | 201 | 3.5 | 6.1 | 0.00 | 0.00 | 0.00 | 30 | 1012.0 |
| 20260507154149 | 51 | 209 | 1.7 | 5.2 | 0.00 | 0.00 | 0.00 | 32 | 1011.8 |
| 20260507153549 | 51 | 209 | 0.0 | 5.2 | 0.00 | 0.00 | 0.00 | 31 | 1012.0 |
| 20260507153047 | 51 | 205 | 1.7 | 4.3 | 0.00 | 0.00 | 0.00 | 32 | 1012.0 |
| 20260507152548 | 50 | 217 | 0.9 | 3.5 | 0.00 | 0.00 | 0.00 | 32 | 1012.0 |
| 20260507152047 | 50 | 256 | 0.9 | 2.6 | 0.00 | 0.00 | 0.00 | 32 | 1012.1 |
| 20260507151548 | 50 | 256 | 0.9 | 2.6 | 0.00 | 0.00 | 0.00 | 32 | 1012.0 |
| 20260507151049 | 50 | 258 | 0.0 | 2.6 | 0.00 | 0.00 | 0.00 | 32 | 1011.9 |
| 20260507150543 | 49 | 258 | 0.9 | 2.6 | 0.00 | 0.00 | 0.00 | 34 | 1011.9 |
| 20260507150045 | 49 | 263 | 0.0 | 2.6 | 0.00 | 0.00 | 0.00 | 34 | 1012.0 |
| 20260507145541 | 48 | 267 | 0.0 | 1.7 | 0.00 | 0.00 | 0.00 | 35 | 1012.0 |
| 20260507145041 | 47 | 271 | 0.0 | 2.6 | 0.00 | 0.00 | 0.00 | 35 | 1012.0 |
| 20260507144539 | 46 | 271 | 0.9 | 2.6 | 0.00 | 0.00 | 0.00 | 36 | 1012.1 |
| 20260507143541 | 45 | 271 | 0.0 | 2.6 | 0.00 | 0.00 | 0.00 | 38 | 1012.2 |